• In Czech Republic
  • List of Countries
  • For 7 days
  • Water Temperature
  • Satellite Maps
  • Weather Map
  • Weather Widgets
  • user-avatar
    Login

    Hourly Weather Pekaninko

    Today, 25 February, Sunday

    Time Temperature Precipitation Wind Pressure Humidity
    00:00 -6°C° 0.1 mm 2 mps 773 mmHg 62%
    01:00 -4°C° 0 mm 1 mps 773 mmHg 63%
    02:00 -6°C° 0 mm 1 mps 773 mmHg 65%
    03:00 -6°C° 0 mm 1 mps 773 mmHg 67%
    04:00 -6°C° 0 mm 1 mps 773 mmHg 69%
    05:00 -6°C° 0.1 mm 1 mps 772 mmHg 71%
    06:00 -6°C° 0.1 mm 1 mps 772 mmHg 73%
    07:00 -8°C° 0 mm 2 mps 773 mmHg 72%
    08:00 -7°C° 0.1 mm 2 mps 773 mmHg 69%
    09:00 -6°C° 0.1 mm 2 mps 772 mmHg 66%
    10:00 -3°C° 0.1 mm 1 mps 772 mmHg 62%
    11:00 -5°C° 0.1 mm 2 mps 772 mmHg 58%
    12:00 -4°C° 0.1 mm 2 mps 772 mmHg 54%
    13:00 -4°C° 0 mm 2 mps 772 mmHg 53%
    14:00 -4°C° 0.1 mm 2 mps 772 mmHg 53%
    15:00 -5°C° 0.1 mm 3 mps 772 mmHg 54%
    16:00 -5°C° 0.1 mm 4 mps 771 mmHg 55%
    17:00 -5°C° 0.1 mm 4 mps 771 mmHg 56%
    18:00 -7°C° 0.1 mm 5 mps 771 mmHg 56%
    19:00 -7°C° 0.1 mm 5 mps 771 mmHg 57%
    20:00 -8°C° 0 mm 5 mps 772 mmHg 58%
    21:00 -8°C° 0 mm 5 mps 772 mmHg 58%
    22:00 -8°C° 0 mm 5 mps 772 mmHg 58%
    23:00 -10°C° 0 mm 5 mps 772 mmHg 60%

    Tomorrow, 26 February, Monday

    Time Temperature Precipitation Wind Pressure Humidity
    00:00 -9°C° 0 mm 4 mps 772 mmHg 61%
    01:00 -9°C° 0 mm 4 mps 772 mmHg 62%
    02:00 -9°C° 0 mm 4 mps 772 mmHg 63%
    03:00 -9°C° 0 mm 4 mps 772 mmHg 65%
    04:00 -9°C° 0 mm 4 mps 772 mmHg 67%
    05:00 -9°C° 0 mm 4 mps 771 mmHg 68%
    06:00 -10°C° 0 mm 4 mps 771 mmHg 69%
    07:00 -9°C° 0 mm 3 mps 771 mmHg 70%
    08:00 -8°C° 0 mm 3 mps 771 mmHg 64%
    09:00 -8°C° 0 mm 4 mps 771 mmHg 59%
    10:00 -8°C° 0 mm 4 mps 771 mmHg 54%
    11:00 -7°C° 0 mm 4 mps 771 mmHg 50%
    12:00 -6°C° 0 mm 3 mps 771 mmHg 46%
    13:00 -5°C° 0 mm 3 mps 770 mmHg 43%
    14:00 -5°C° 0 mm 3 mps 770 mmHg 44%
    15:00 -5°C° 0 mm 3 mps 770 mmHg 45%
    16:00 -5°C° 0 mm 3 mps 769 mmHg 46%
    17:00 -5°C° 0.1 mm 3 mps 769 mmHg 51%
    18:00 -7°C° 0.1 mm 4 mps 769 mmHg 56%
    19:00 -7°C° 0.1 mm 4 mps 769 mmHg 61%
    20:00 -7°C° 0.1 mm 4 mps 769 mmHg 61%
    21:00 -8°C° 0.1 mm 4 mps 769 mmHg 61%
    22:00 -7°C° 0.1 mm 3 mps 768 mmHg 60%
    23:00 -7°C° 0 mm 3 mps 768 mmHg 61%

    Day after tomorrow, 27 February, Tuesday

    Time Temperature Precipitation Wind Pressure Humidity
    00:00 -7°C° 0 mm 2 mps 768 mmHg 62%
    01:00 -6°C° 0 mm 1 mps 768 mmHg 62%
    02:00 -6°C° 0.1 mm 1 mps 767 mmHg 63%
    03:00 -7°C° 0.1 mm 2 mps 767 mmHg 64%
    04:00 -7°C° 0.1 mm 2 mps 766 mmHg 64%
    05:00 -8°C° 0.3 mm 3 mps 766 mmHg 69%
    06:00 -8°C° 0.3 mm 3 mps 766 mmHg 74%
    07:00 -9°C° 0.3 mm 4 mps 766 mmHg 79%
    08:00 -9°C° 0.2 mm 4 mps 766 mmHg 76%
    09:00 -9°C° 0.2 mm 4 mps 766 mmHg 73%
    10:00 -8°C° 0.2 mm 5 mps 766 mmHg 70%
    11:00 -8°C° 0.1 mm 4 mps 766 mmHg 66%
    12:00 -8°C° 0.1 mm 4 mps 766 mmHg 62%
    13:00 -7°C° 0.1 mm 4 mps 766 mmHg 58%
    14:00 -7°C° 0.1 mm 4 mps 766 mmHg 54%
    15:00 -8°C° 0.1 mm 4 mps 766 mmHg 50%
    16:00 -8°C° 0.1 mm 5 mps 767 mmHg 46%
    17:00 -8°C° 0 mm 5 mps 767 mmHg 48%
    18:00 -10°C° 0 mm 6 mps 768 mmHg 50%
    19:00 -12°C° 0 mm 7 mps 768 mmHg 53%
    20:00 -12°C° 0 mm 7 mps 769 mmHg 55%
    21:00 -13°C° 0 mm 7 mps 769 mmHg 57%
    22:00 -14°C° 0 mm 7 mps 770 mmHg 60%
    23:00 -14°C° 0 mm 7 mps 770 mmHg 61%

    28 February, Wednesday

    Time Temperature Precipitation Wind Pressure Humidity
    00:00 -15°C° 0 mm 6 mps 771 mmHg 62%
    01:00 -15°C° 0 mm 6 mps 771 mmHg 63%
    02:00 -15°C° 0 mm 6 mps 771 mmHg 65%
    03:00 -16°C° 0 mm 6 mps 771 mmHg 66%
    04:00 -16°C° 0 mm 6 mps 771 mmHg 67%
    05:00 -16°C° 0 mm 6 mps 771 mmHg 68%
    06:00 -16°C° 0 mm 6 mps 772 mmHg 69%
    07:00 -16°C° 0 mm 6 mps 772 mmHg 70%
    08:00 -16°C° 0 mm 6 mps 772 mmHg 66%
    09:00 -15°C° 0 mm 6 mps 772 mmHg 63%
    10:00 -14°C° 0 mm 6 mps 772 mmHg 59%
    11:00 -12°C° 0 mm 6 mps 772 mmHg 56%
    12:00 -11°C° 0 mm 6 mps 772 mmHg 53%
    13:00 -10°C° 0 mm 6 mps 772 mmHg 49%
    14:00 -10°C° 0 mm 6 mps 772 mmHg 51%
    15:00 -10°C° 0 mm 6 mps 772 mmHg 53%
    16:00 -10°C° 0 mm 6 mps 772 mmHg 54%
    17:00 -11°C° 0 mm 6 mps 772 mmHg 59%
    18:00 -11°C° 0 mm 6 mps 772 mmHg 63%
    19:00 -12°C° 0 mm 6 mps 772 mmHg 68%
    20:00 -12°C° 0 mm 6 mps 772 mmHg 68%
    21:00 -12°C° 0 mm 6 mps 772 mmHg 69%
    22:00 -14°C° 0 mm 6 mps 772 mmHg 70%
    23:00 -14°C° 0 mm 6 mps 772 mmHg 70%

    1 March, Thursday

    Time Temperature Precipitation Wind Pressure Humidity
    00:00 -13°C° 0 mm 5 mps 771 mmHg 70%
    01:00 -14°C° 0 mm 5 mps 771 mmHg 70%
    02:00 -14°C° 0 mm 5 mps 771 mmHg 70%
    03:00 -14°C° 0 mm 5 mps 770 mmHg 71%
    04:00 -14°C° 0 mm 5 mps 770 mmHg 72%
    05:00 -15°C° 0 mm 5 mps 770 mmHg 73%
    06:00 -15°C° 0 mm 5 mps 770 mmHg 74%
    07:00 -15°C° 0 mm 5 mps 769 mmHg 75%
    08:00 -14°C° 0 mm 5 mps 769 mmHg 70%
    09:00 -13°C° 0 mm 5 mps 769 mmHg 65%
    10:00 -13°C° 0 mm 5 mps 769 mmHg 61%
    11:00 -12°C° 0 mm 5 mps 768 mmHg 57%
    12:00 -11°C° 0 mm 5 mps 768 mmHg 53%
    13:00 -10°C° 0 mm 5 mps 767 mmHg 49%
    14:00 -10°C° 0 mm 5 mps 767 mmHg 50%
    15:00 -10°C° 0 mm 5 mps 766 mmHg 51%
    16:00 -10°C° 0 mm 5 mps 766 mmHg 51%
    17:00 -11°C° 0 mm 5 mps 766 mmHg 54%
    18:00 -11°C° 0 mm 5 mps 766 mmHg 58%
    19:00 -12°C° 0 mm 5 mps 766 mmHg 61%
    20:00 -12°C° 0 mm 5 mps 765 mmHg 61%
    21:00 -13°C° 0 mm 5 mps 765 mmHg 61%
    22:00 -13°C° 0 mm 5 mps 765 mmHg 61%
    23:00 -13°C° 0 mm 5 mps 765 mmHg 61%

    2 March, Friday

    Time Temperature Precipitation Wind Pressure Humidity
    00:00 -12°C° 0 mm 4 mps 764 mmHg 62%
    01:00 -14°C° 0 mm 4 mps 764 mmHg 62%
    02:00 -14°C° 0 mm 4 mps 764 mmHg 63%
    03:00 -14°C° 0 mm 4 mps 763 mmHg 64%
    04:00 -14°C° 0 mm 4 mps 763 mmHg 66%
    05:00 -14°C° 0 mm 4 mps 762 mmHg 67%
    06:00 -14°C° 0 mm 4 mps 762 mmHg 68%
    07:00 -15°C° 0 mm 4 mps 761 mmHg 70%
    08:00 -14°C° 0 mm 4 mps 761 mmHg 65%
    09:00 -13°C° 0 mm 5 mps 761 mmHg 61%
    10:00 -12°C° 0 mm 5 mps 761 mmHg 57%
    11:00 -11°C° 0 mm 5 mps 760 mmHg 53%
    12:00 -10°C° 0 mm 5 mps 759 mmHg 50%
    13:00 -8°C° 0 mm 5 mps 759 mmHg 46%
    14:00 -8°C° 0 mm 5 mps 758 mmHg 45%
    15:00 -8°C° 0 mm 5 mps 758 mmHg 45%
    16:00 -8°C° 0 mm 5 mps 757 mmHg 44%
    17:00 -8°C° 0 mm 5 mps 757 mmHg 47%
    18:00 -10°C° 0 mm 5 mps 757 mmHg 49%
    19:00 -10°C° 0 mm 5 mps 756 mmHg 51%
    20:00 -11°C° 0 mm 5 mps 756 mmHg 53%
    21:00 -11°C° 0 mm 5 mps 756 mmHg 54%
    22:00 -11°C° 0 mm 5 mps 755 mmHg 56%
    23:00 -11°C° 0 mm 5 mps 755 mmHg 58%
    Show more